EW5961 Weather Reports


Display with metric or nautical units.
time (UTC)temp
F
wind
direction
speed
MPH
gust
MPH
rain 1hr
in
rain 24hr
in
rain mn
in
humidity
%
barometer
mb
20260831141516 85 178 0.0 5.0 0.00 0.00 0.00 80 1015.6
20260831140029 85 70 0.0 4.0 0.00 0.00 0.00 80 1015.3
20260831134508 84 116 2.0 6.0 0.00 0.00 0.00 80 1015.1
20260831133003 83 110 4.0 9.0 0.00 0.00 0.00 81 1015.1
20260831131602 82 86 1.0 5.0 0.00 0.00 0.00 81 1014.9
20260831130054 81 136 0.0 6.0 0.00 0.00 0.00 83 1015.0
20260831124551 80 42 3.0 4.0 0.00 0.00 0.00 85 1014.7
20260831123048 79 106 0.0 6.0 0.00 0.00 0.00 85 1014.5
20260831121547 79 128 0.0 3.0 0.00 0.00 0.00 86 1014.3
20260831120152 78 50 2.0 7.0 0.00 0.00 0.00 86 1014.4
20260831114541 79 101 2.0 5.0 0.00 0.00 0.00 85 1014.1
20260831113046 79 104 0.0 6.0 0.00 0.00 0.00 85 1014.0
20260831111535 79 130 1.0 4.0 0.00 0.00 0.00 85 1013.9
20260831110034 79 113 1.0 3.0 0.00 0.00 0.00 85 1013.9
20260831104537 79 115 1.0 3.0 0.00 0.00 0.00 84 1013.6
20260831103033 79 85 0.0 3.0 0.00 0.00 0.00 84 1013.6
20260831101532 79 131 2.0 4.0 0.00 0.00 0.00 84 1013.8
20260831100036 79 77 0.0 3.0 0.00 0.00 0.00 84 1013.6
20260831094530 79 62 1.0 4.0 0.00 0.00 0.00 84 1013.6
20260831093031 79 167 1.0 3.0 0.00 0.00 0.00 84 1013.6
20260831091533 79 115 1.0 3.0 0.00 0.00 0.00 84 1013.7
20260831090028 79 58 1.0 3.0 0.00 0.00 0.00 84 1013.9
20260831084528 79 84 0.0 2.0 0.00 0.00 0.00 84 1013.8
20260831083028 79 84 0.0 2.0 0.00 0.00 0.00 84 1013.9
20260831081526 79 84 0.0 2.0 0.00 0.00 0.00 84 1014.1
20260831080028 79 40 0.0 2.0 0.00 0.00 0.00 84 1014.2
20260831074525 79 35 0.0 3.0 0.00 0.00 0.00 84 1014.2
20260831073021 79 46 2.0 4.0 0.00 0.00 0.00 84 1014.4
20260831071519 79 129 0.0 4.0 0.00 0.00 0.00 84 1014.7
20260831070018 79 148 0.0 0.0 0.00 0.00 0.00 84 1014.8
20260831064518 79 148 0.0 2.0 0.00 0.00 0.00 83 1015.0
20260831063017 79 148 0.0 2.0 0.00 0.00 0.00 83 1015.0
20260831061515 79 121 2.0 4.0 0.00 0.00 0.00 83 1015.0
20260831060012 80 121 3.0 4.0 0.00 0.00 0.00 82 1015.2
20260831054512 80 181 2.0 6.0 0.00 0.00 0.00 81 1015.4
20260831053011 81 153 3.0 8.0 0.00 0.00 0.00 80 1015.4
20260831051518 81 141 2.0 7.0 0.00 0.00 0.00 79 1015.4
20260831050010 81 132 3.0 6.0 0.00 0.00 0.00 79 1015.5
20260831044610 82 117 3.0 6.0 0.00 0.00 0.00 78 1015.5
20260831043009 82 141 2.0 4.0 0.00 0.00 0.00 77 1015.7
20260831041509 82 123 2.0 6.0 0.00 0.00 0.00 76 1015.5
20260831040008 82 131 3.0 5.0 0.00 0.00 0.00 75 1015.2
20260831034507 83 125 1.0 4.0 0.00 0.00 0.00 74 1015.0
20260831033015 83 121 3.0 7.0 0.00 0.00 0.00 74 1014.6
20260831031513 83 94 3.0 8.0 0.00 0.00 0.00 73 1014.7
20260831030006 84 163 1.0 11.0 0.00 0.00 0.00 74 1014.6
20260831024505 84 121 8.0 12.0 0.00 0.00 0.00 77 1014.7
20260831023006 85 107 8.0 16.0 0.00 0.00 0.00 79 1014.8
20260831021507 86 103 12.0 21.0 0.00 0.00 0.00 78 1014.8
20260831020003 86 71 15.0 18.0 0.00 0.00 0.00 77 1014.6
20260831014502 87 59 12.0 17.0 0.00 0.00 0.00 76 1014.4
20260831013002 87 46 11.0 18.0 0.00 0.00 0.00 75 1014.4
20260831011501 87 47 13.0 19.0 0.00 0.00 0.00 74 1014.4
20260831010100 88 63 13.0 18.0 0.00 0.00 0.00 73 1014.4
20260831004601 88 53 11.0 15.0 0.00 0.00 0.00 72 1014.0
20260831003058 89 49 13.0 17.0 0.00 0.00 0.00 71 1013.6
20260831001558 89 59 11.0 15.0 0.00 0.00 0.00 69 1013.1
20260831000106 90 44 14.0 18.0 0.00 0.00 0.00 68 1013.0
20260830234557 90 11 13.0 18.0 0.00 0.00 0.00 67 1013.1
20260830233056 90 53 13.0 19.0 0.00 0.00 0.00 67 1012.9
20260830231555 91 53 12.0 17.0 0.00 0.00 0.00 65 1012.9
20260830230055 92 48 17.0 24.0 0.00 0.00 0.00 63 1012.6
20260830224556 92 28 13.0 18.0 0.00 0.00 0.00 62 1012.4
20260830223154 93 36 12.0 17.0 0.00 0.00 0.00 60 1012.5
20260830221553 94 351 8.0 15.0 0.00 0.00 0.00 60 1012.2
20260830220056 94 45 10.0 16.0 0.00 0.00 0.00 59 1012.2
20260830214550 94 345 11.0 21.0 0.00 0.00 0.00 59 1012.5
20260830213049 94 355 10.0 18.0 0.00 0.00 0.00 61 1012.5
20260830211550 95 9 9.0 14.0 0.00 0.00 0.00 59 1012.6
20260830210048 95 5 9.0 12.0 0.00 0.00 0.00 60 1012.6
20260830204546 95 49 9.0 14.0 0.00 0.00 0.00 60 1012.7
20260830203045 93 17 9.0 17.0 0.00 0.00 0.00 63 1012.8
20260830201544 95 32 7.0 16.0 0.00 0.00 0.00 59 1013.1
20260830200039 96 133 2.0 7.0 0.00 0.00 0.00 54 1013.1
20260830194537 95 95 3.0 11.0 0.00 0.00 0.00 57 1013.4
20260830193034 95 105 5.0 12.0 0.00 0.00 0.00 56 1013.9
20260830191539 95 88 3.0 12.0 0.00 0.00 0.00 57 1014.0
20260830190031 96 31 3.0 10.0 0.00 0.00 0.00 58 1014.2
20260830184531 95 49 8.0 13.0 0.00 0.00 0.00 57 1014.6
20260830183027 95 77 3.0 10.0 0.00 0.00 0.00 57 1014.8
20260830181524 95 43 8.0 13.0 0.00 0.00 0.00 58 1014.9
20260830180022 93 134 1.0 9.0 0.00 0.00 0.00 60 1015.0
20260830174524 93 159 4.0 8.0 0.00 0.00 0.00 59 1015.2
20260830173018 92 139 1.0 10.0 0.00 0.00 0.00 62 1015.3
20260830171516 92 98 1.0 7.0 0.00 0.00 0.00 63 1015.3
20260830170033 91 131 2.0 9.0 0.00 0.00 0.00 66 1015.6
20260830164511 91 178 6.0 10.0 0.00 0.00 0.00 65 1015.8
20260830163008 91 130 2.0 9.0 0.00 0.00 0.00 64 1015.9
20260830161504 89 161 5.0 11.0 0.00 0.00 0.00 67 1016.0
20260830160004 90 124 3.0 9.0 0.00 0.00 0.00 66 1016.1
20260830154600 89 326 3.0 11.0 0.00 0.00 0.00 69 1016.1
20260830153053 88 127 4.0 10.0 0.00 0.00 0.00 73 1016.2
20260830151602 87 124 2.0 8.0 0.00 0.00 0.00 75 1016.3
20260830150047 86 103 3.0 7.0 0.00 0.00 0.00 77 1016.3
20260830144551 86 82 3.0 7.0 0.00 0.00 0.00 78 1016.2
20260830143039 85 124 4.0 8.0 0.00 0.00 0.00 79 1016.4